Flag for Germany Weather past 2 weeks in Friesoythe, Lower Saxony, Germany

Now
57 °F

Cool.


Feels Like: 55 °F
Forecast: 47 / 60 °F
Wind: 10 mph from Northeast

Location: Meppen-Mil


UV Index: 0 (Low)

Visibility: 4 mi


Pressure: 29.86 "Hg

Humidity: 67%

Dew point: 46 °F

Location of FriesoytheLocation

Historic Weather in Friesoythe

°F

Friesoythe temperature yesterday

Maximum temperature yesterday: 61 °F (at 3:20 PM)
Minimum temperature yesterday: 43 °F (at 12:20 AM)
Average temperature yesterday: 51 °F

Past Weeks' High & Low Weather Summary

 TemperatureHumidityPressure
High70 °F (Apr 7, 3:20 PM)100% (Apr 6, 6:20 AM)30.48 "Hg (Apr 6, 6:20 AM)
Low28 °F (Apr 16, 5:20 AM)27% (Apr 16, 4:20 PM)29.65 "Hg (Apr 8, 5:20 AM)
Average50 °F73%30.06 "Hg
* Reported Apr 5 10:20 AM — Apr 20 10:20 AM, Friesoythe, Weather by CustomWeather, © 2014

Note: Actual official high and low records may vary slightly from our data, if they occured in-between our weather recording intervals... More about our weather records

Advertising

Historic Weather Conditions — Data for Previous 24 hours

 ConditionsComfort  
Time TempWeatherWind HumidityBarometerVisibility
10:20 AM
Apr 20
57 °FCool.10 mph67%29.86 "Hg4 mi
9:20 AM54 °FCool.8 mph72%29.89 "Hg4 mi
8:20 AM50 °FCool.8 mph82%29.89 "Hg4 mi
7:20 AM48 °FCool.8 mph82%29.89 "Hg4 mi
6:20 AM46 °FCool.7 mph87%29.89 "Hg4 mi
5:20 AM48 °FCool.8 mph82%29.89 "Hg4 mi
4:20 AM48 °FCool.7 mph82%29.92 "Hg4 mi
3:20 AM50 °FCool.7 mph76%29.92 "Hg4 mi
2:20 AM50 °FCool.5 mph76%29.95 "Hg4 mi
1:20 AM52 °FCool.8 mph67%29.98 "Hg4 mi
12:20 AM52 °FCool.9 mph62%30.01 "Hg4 mi
11:20 PM
Apr 19
54 °FCool.10 mph67%30.01 "Hg4 mi
10:20 PM55 °FCool.12 mph67%30.01 "Hg4 mi
9:20 PM55 °FCool.9 mph63%30.01 "Hg4 mi
8:20 PM57 °FCool.9 mph63%30.01 "Hg5 mi
7:20 PM61 °FRefreshingly cool.10 mph48%30.01 "Hg6 mi
6:20 PM61 °FRefreshingly cool.13 mph45%30.01 "Hg6 mi
5:20 PM61 °FRefreshingly cool.13 mph48%30.04 "Hg5 mi
4:20 PM61 °FRefreshingly cool.10 mph48%30.07 "Hg5 mi
3:20 PM61 °FRefreshingly cool.10 mph48%30.07 "Hg5 mi
2:20 PM57 °FRefreshingly cool.12 mph48%30.09 "Hg6 mi
1:20 PM57 °FRefreshingly cool.9 mph51%30.12 "Hg6 mi
12:20 PM54 °FCool.9 mph58%30.12 "Hg6 mi
11:20 AM52 °FCool.9 mph62%30.12 "Hg6 mi
Weather by CustomWeather, © 2014

See weather overview